contact: severine.martini@mio.osupytheas.fr, dominique.lefevre@mio.osupytheas.fr
Project:EMSO Ligure-ouest http://www.emso-fr.org/EMSO-France
Sensor Microcat Sea-Bird SBE37 SMP,  Serial 57510 
DOI : "https://doi.org/10.17882/97948" 
Title:EMSO Ligure Ouest : Data Bathybot capteur Microcat - deploiement 2023-04-28
Datetime,Profondeur,Latitude,Longitude,Temperature,Conductivite,Pression,Salinite
time,m,degree_north,degree_east,degree_C,S/m,db,PSU 
2023-10-28T00:00:49,2420,42.8014,5.9826,13.2979,4.59950,2453.604,38.4909
2023-10-28T00:03:49,2420,42.8014,5.9826,13.2978,4.59948,2453.604,38.4908
2023-10-28T00:06:49,2420,42.8014,5.9826,13.2978,4.59947,2453.582,38.4907
2023-10-28T00:09:49,2420,42.8014,5.9826,13.2980,4.59947,2453.582,38.4905
2023-10-28T00:12:49,2420,42.8014,5.9826,13.2977,4.59948,2453.582,38.4909
2023-10-28T00:15:49,2420,42.8014,5.9826,13.2981,4.59948,2453.582,38.4904
2023-10-28T00:18:49,2420,42.8014,5.9826,13.2978,4.59948,2453.582,38.4908
2023-10-28T00:21:49,2420,42.8014,5.9826,13.2979,4.59954,2453.567,38.4912
2023-10-28T00:24:49,2420,42.8014,5.9826,13.2981,4.59946,2453.582,38.4902
2023-10-28T00:27:49,2420,42.8014,5.9826,13.2976,4.59948,2453.582,38.4910
2023-10-28T00:30:49,2420,42.8014,5.9826,13.2978,4.59948,2453.559,38.4908
2023-10-28T00:33:49,2420,42.8014,5.9826,13.2978,4.59946,2453.596,38.4906
2023-10-28T00:36:49,2420,42.8014,5.9826,13.2981,4.59945,2453.559,38.4902
2023-10-28T00:39:49,2420,42.8014,5.9826,13.2979,4.59948,2453.544,38.4907
2023-10-28T00:42:49,2420,42.8014,5.9826,13.2978,4.59945,2453.559,38.4905
2023-10-28T00:45:49,2420,42.8014,5.9826,13.2978,4.59948,2453.544,38.4908
2023-10-28T00:48:49,2420,42.8014,5.9826,13.2979,4.59943,2453.537,38.4902
2023-10-28T00:51:49,2420,42.8014,5.9826,13.2975,4.59948,2453.582,38.4910
2023-10-28T00:54:49,2420,42.8014,5.9826,13.2980,4.59946,2453.559,38.4904
2023-10-28T00:57:49,2420,42.8014,5.9826,13.2979,4.59946,2453.544,38.4905
2023-10-28T01:00:49,2420,42.8014,5.9826,13.2979,4.59948,2453.582,38.4907
2023-10-28T01:03:49,2420,42.8014,5.9826,13.2982,4.59946,2453.559,38.4902
2023-10-28T01:06:49,2420,42.8014,5.9826,13.2976,4.59950,2453.582,38.4911
2023-10-28T01:09:49,2420,42.8014,5.9826,13.2980,4.59944,2453.582,38.4902
2023-10-28T01:12:49,2420,42.8014,5.9826,13.2980,4.59942,2453.582,38.4900
2023-10-28T01:15:49,2420,42.8014,5.9826,13.2982,4.59946,2453.559,38.4902
2023-10-28T01:18:49,2420,42.8014,5.9826,13.2980,4.59948,2453.582,38.4905
2023-10-28T01:21:49,2420,42.8014,5.9826,13.2978,4.59951,2453.582,38.4910
2023-10-28T01:24:49,2420,42.8014,5.9826,13.2983,4.59947,2453.544,38.4902
2023-10-28T01:27:49,2420,42.8014,5.9826,13.2978,4.59948,2453.559,38.4907
2023-10-28T01:30:49,2420,42.8014,5.9826,13.2980,4.59943,2453.582,38.4901
2023-10-28T01:33:49,2420,42.8014,5.9826,13.2978,4.59946,2453.582,38.4906
2023-10-28T01:36:49,2420,42.8014,5.9826,13.2980,4.59950,2453.582,38.4908
2023-10-28T01:39:49,2420,42.8014,5.9826,13.2979,4.59944,2453.582,38.4903
2023-10-28T01:42:49,2420,42.8014,5.9826,13.2978,4.59952,2453.604,38.4911
2023-10-28T01:45:49,2420,42.8014,5.9826,13.2977,4.59950,2453.582,38.4911
2023-10-28T01:48:49,2420,42.8014,5.9826,13.2976,4.59951,2453.582,38.4912
2023-10-28T01:51:49,2420,42.8014,5.9826,13.2979,4.59946,2453.559,38.4905
2023-10-28T01:54:49,2420,42.8014,5.9826,13.2979,4.59946,2453.582,38.4905
2023-10-28T01:57:49,2420,42.8014,5.9826,13.2977,4.59946,2453.544,38.4907
2023-10-28T02:00:49,2420,42.8014,5.9826,13.2979,4.59942,2453.582,38.4902
2023-10-28T02:03:49,2420,42.8014,5.9826,13.2981,4.59942,2453.582,38.4899
2023-10-28T02:06:49,2420,42.8014,5.9826,13.2977,4.59944,2453.604,38.4905
2023-10-28T02:09:49,2420,42.8014,5.9826,13.2979,4.59947,2453.604,38.4906
2023-10-28T02:12:49,2420,42.8014,5.9826,13.2977,4.59952,2453.582,38.4913
2023-10-28T02:15:49,2420,42.8014,5.9826,13.2977,4.59949,2453.567,38.4910
2023-10-28T02:18:49,2420,42.8014,5.9826,13.2976,4.59949,2453.582,38.4911
2023-10-28T02:21:49,2420,42.8014,5.9826,13.2978,4.59950,2453.619,38.4910
2023-10-28T02:24:49,2420,42.8014,5.9826,13.2986,4.59946,2453.567,38.4898
2023-10-28T02:27:49,2420,42.8014,5.9826,13.2980,4.59958,2453.619,38.4915
2023-10-28T02:30:49,2420,42.8014,5.9826,13.2976,4.59948,2453.604,38.4910
2023-10-28T02:33:49,2420,42.8014,5.9826,13.2977,4.59944,2453.582,38.4905
2023-10-28T02:36:49,2420,42.8014,5.9826,13.2982,4.59940,2453.604,38.4897
2023-10-28T02:39:49,2420,42.8014,5.9826,13.2978,4.59942,2453.604,38.4902
2023-10-28T02:42:49,2420,42.8014,5.9826,13.2978,4.59942,2453.582,38.4902
2023-10-28T02:45:49,2420,42.8014,5.9826,13.2979,4.59950,2453.627,38.4908
2023-10-28T02:48:49,2420,42.8014,5.9826,13.2980,4.59946,2453.604,38.4903
2023-10-28T02:51:49,2420,42.8014,5.9826,13.2977,4.59947,2453.649,38.4908
2023-10-28T02:54:49,2420,42.8014,5.9826,13.2982,4.59943,2453.649,38.4899
2023-10-28T02:57:49,2420,42.8014,5.9826,13.2979,4.59948,2453.627,38.4906
2023-10-28T03:00:50,2420,42.8014,5.9826,13.2979,4.59949,2453.612,38.4907
2023-10-28T03:03:49,2420,42.8014,5.9826,13.2979,4.59947,2453.627,38.4905
2023-10-28T03:06:49,2420,42.8014,5.9826,13.2979,4.59946,2453.649,38.4905
2023-10-28T03:09:49,2420,42.8014,5.9826,13.2981,4.59948,2453.672,38.4904
2023-10-28T03:12:49,2420,42.8014,5.9826,13.2982,4.59953,2453.649,38.4909
2023-10-28T03:15:49,2420,42.8014,5.9826,13.2979,4.59951,2453.604,38.4909
2023-10-28T03:18:49,2420,42.8014,5.9826,13.2979,4.59946,2453.627,38.4904
2023-10-28T03:21:49,2420,42.8014,5.9826,13.2978,4.59946,2453.657,38.4906
2023-10-28T03:24:49,2420,42.8014,5.9826,13.2979,4.59947,2453.635,38.4906
2023-10-28T03:27:49,2420,42.8014,5.9826,13.2981,4.59946,2453.672,38.4903
2023-10-28T03:30:49,2420,42.8014,5.9826,13.2978,4.59948,2453.649,38.4908
2023-10-28T03:33:49,2420,42.8014,5.9826,13.2980,4.59953,2453.687,38.4910
2023-10-28T03:36:49,2420,42.8014,5.9826,13.2980,4.59952,2453.695,38.4909
2023-10-28T03:39:49,2420,42.8014,5.9826,13.2981,4.59945,2453.717,38.4901
2023-10-28T03:42:49,2420,42.8014,5.9826,13.2978,4.59945,2453.649,38.4905
2023-10-28T03:45:49,2420,42.8014,5.9826,13.2979,4.59951,2453.672,38.4909
2023-10-28T03:48:49,2420,42.8014,5.9826,13.2978,4.59950,2453.672,38.4910
2023-10-28T03:51:49,2420,42.8014,5.9826,13.2980,4.59944,2453.672,38.4902
2023-10-28T03:54:49,2420,42.8014,5.9826,13.2978,4.59952,2453.702,38.4911
2023-10-28T03:57:49,2420,42.8014,5.9826,13.2981,4.59946,2453.695,38.4902
2023-10-28T04:00:50,2420,42.8014,5.9826,13.2980,4.59946,2453.695,38.4904
2023-10-28T04:03:49,2420,42.8014,5.9826,13.2978,4.59945,2453.680,38.4904
2023-10-28T04:06:49,2420,42.8014,5.9826,13.2978,4.59950,2453.717,38.4909
2023-10-28T04:09:49,2420,42.8014,5.9826,13.2982,4.59951,2453.717,38.4906
2023-10-28T04:12:49,2420,42.8014,5.9826,13.2977,4.59945,2453.717,38.4906
2023-10-28T04:15:49,2420,42.8014,5.9826,13.2979,4.59950,2453.680,38.4908
2023-10-28T04:18:49,2420,42.8014,5.9826,13.2980,4.59943,2453.695,38.4900
2023-10-28T04:21:49,2420,42.8014,5.9826,13.2981,4.59947,2453.695,38.4903
2023-10-28T04:24:49,2420,42.8014,5.9826,13.2977,4.59946,2453.725,38.4906
2023-10-28T04:27:49,2420,42.8014,5.9826,13.2980,4.59949,2453.740,38.4906
2023-10-28T04:30:49,2420,42.8014,5.9826,13.2979,4.59947,2453.725,38.4905
2023-10-28T04:33:49,2420,42.8014,5.9826,13.2982,4.59948,2453.717,38.4904
2023-10-28T04:36:49,2420,42.8014,5.9826,13.2979,4.59948,2453.740,38.4905
2023-10-28T04:39:49,2420,42.8014,5.9826,13.2979,4.59946,2453.717,38.4904
2023-10-28T04:42:49,2420,42.8014,5.9826,13.2982,4.59951,2453.717,38.4906
2023-10-28T04:45:49,2420,42.8014,5.9826,13.2979,4.59950,2453.695,38.4908
2023-10-28T04:48:49,2420,42.8014,5.9826,13.2979,4.59952,2453.740,38.4910
2023-10-28T04:51:49,2420,42.8014,5.9826,13.2983,4.59952,2453.762,38.4906
2023-10-28T04:54:49,2420,42.8014,5.9826,13.2978,4.59951,2453.762,38.4910
2023-10-28T04:57:49,2420,42.8014,5.9826,13.2980,4.59950,2453.762,38.4907
2023-10-28T05:00:49,2420,42.8014,5.9826,13.2979,4.59948,2453.762,38.4907
2023-10-28T05:03:49,2420,42.8014,5.9826,13.2978,4.59956,2453.762,38.4915
2023-10-28T05:06:49,2420,42.8014,5.9826,13.2980,4.59953,2453.740,38.4910
2023-10-28T05:09:49,2420,42.8014,5.9826,13.2984,4.59948,2453.740,38.4901
2023-10-28T05:12:49,2420,42.8014,5.9826,13.2976,4.59948,2453.740,38.4909
2023-10-28T05:15:49,2420,42.8014,5.9826,13.2979,4.59950,2453.740,38.4908
2023-10-28T05:18:49,2420,42.8014,5.9826,13.2980,4.59949,2453.762,38.4906
2023-10-28T05:21:49,2420,42.8014,5.9826,13.2979,4.59952,2453.754,38.4910
2023-10-28T05:24:49,2420,42.8014,5.9826,13.2982,4.59952,2453.762,38.4907
2023-10-28T05:27:49,2420,42.8014,5.9826,13.2979,4.59956,2453.762,38.4913
2023-10-28T05:30:49,2420,42.8014,5.9826,13.2982,4.59946,2453.785,38.4902
2023-10-28T05:33:49,2420,42.8014,5.9826,13.2979,4.59951,2453.748,38.4908
2023-10-28T05:36:49,2420,42.8014,5.9826,13.2980,4.59953,2453.762,38.4910
2023-10-28T05:39:49,2420,42.8014,5.9826,13.2979,4.59959,2453.785,38.4916
2023-10-28T05:42:49,2420,42.8014,5.9826,13.2981,4.59954,2453.770,38.4910
2023-10-28T05:45:49,2420,42.8014,5.9826,13.2982,4.59948,2453.785,38.4904
2023-10-28T05:48:49,2420,42.8014,5.9826,13.2982,4.59951,2453.822,38.4906
2023-10-28T05:51:49,2420,42.8014,5.9826,13.2982,4.59958,2453.807,38.4913
2023-10-28T05:54:49,2420,42.8014,5.9826,13.2979,4.59955,2453.762,38.4912
2023-10-28T05:57:49,2420,42.8014,5.9826,13.2982,4.59948,2453.807,38.4903
2023-10-28T06:00:49,2420,42.8014,5.9826,13.2979,4.59949,2453.770,38.4907
2023-10-28T06:03:49,2420,42.8014,5.9826,13.2980,4.59953,2453.770,38.4910
2023-10-28T06:06:49,2420,42.8014,5.9826,13.2977,4.59951,2453.793,38.4911
2023-10-28T06:09:49,2420,42.8014,5.9826,13.2980,4.59950,2453.807,38.4907
2023-10-28T06:12:49,2420,42.8014,5.9826,13.2983,4.59949,2453.807,38.4903
2023-10-28T06:15:49,2420,42.8014,5.9826,13.2979,4.59953,2453.807,38.4910
2023-10-28T06:18:49,2420,42.8014,5.9826,13.2979,4.59950,2453.785,38.4907
2023-10-28T06:21:49,2420,42.8014,5.9826,13.2982,4.59951,2453.770,38.4906
2023-10-28T06:24:49,2420,42.8014,5.9826,13.2986,4.59957,2453.830,38.4908
2023-10-28T06:27:49,2420,42.8014,5.9826,13.2982,4.59952,2453.785,38.4907
2023-10-28T06:30:49,2420,42.8014,5.9826,13.2980,4.59952,2453.785,38.4909
2023-10-28T06:33:49,2420,42.8014,5.9826,13.2981,4.59950,2453.807,38.4906
2023-10-28T06:36:49,2420,42.8014,5.9826,13.2982,4.59951,2453.785,38.4906
2023-10-28T06:39:49,2420,42.8014,5.9826,13.2982,4.59948,2453.807,38.4904
2023-10-28T06:42:49,2420,42.8014,5.9826,13.2982,4.59949,2453.785,38.4905
2023-10-28T06:45:49,2420,42.8014,5.9826,13.2984,4.59949,2453.785,38.4902
2023-10-28T06:48:49,2420,42.8014,5.9826,13.2982,4.59949,2453.807,38.4904
2023-10-28T06:51:49,2420,42.8014,5.9826,13.2978,4.59953,2453.815,38.4911
2023-10-28T06:54:49,2420,42.8014,5.9826,13.2977,4.59955,2453.793,38.4915
2023-10-28T06:57:49,2420,42.8014,5.9826,13.2982,4.59949,2453.807,38.4904
2023-10-28T07:00:49,2420,42.8014,5.9826,13.2985,4.59951,2453.785,38.4904
2023-10-28T07:03:49,2420,42.8014,5.9826,13.2981,4.59953,2453.807,38.4908
2023-10-28T07:06:49,2420,42.8014,5.9826,13.2982,4.59955,2453.807,38.4910
2023-10-28T07:09:49,2420,42.8014,5.9826,13.2981,4.59954,2453.785,38.4909
2023-10-28T07:12:49,2420,42.8014,5.9826,13.2979,4.59951,2453.807,38.4909
2023-10-28T07:15:49,2420,42.8014,5.9826,13.2980,4.59949,2453.785,38.4906
2023-10-28T07:18:49,2420,42.8014,5.9826,13.2978,4.59954,2453.785,38.4913
2023-10-28T07:21:49,2420,42.8014,5.9826,13.2980,4.59950,2453.830,38.4907
2023-10-28T07:24:49,2420,42.8014,5.9826,13.2980,4.59953,2453.800,38.4909
2023-10-28T07:27:49,2420,42.8014,5.9826,13.2982,4.59949,2453.785,38.4904
2023-10-28T07:30:49,2420,42.8014,5.9826,13.2979,4.59950,2453.807,38.4907
2023-10-28T07:33:49,2420,42.8014,5.9826,13.2982,4.59952,2453.793,38.4907
2023-10-28T07:36:49,2420,42.8014,5.9826,13.2981,4.59949,2453.785,38.4905
2023-10-28T07:39:49,2420,42.8014,5.9826,13.2980,4.59950,2453.800,38.4907
2023-10-28T07:42:49,2420,42.8014,5.9826,13.2983,4.59949,2453.807,38.4903
2023-10-28T07:45:49,2420,42.8014,5.9826,13.2982,4.59946,2453.807,38.4902
2023-10-28T07:48:49,2420,42.8014,5.9826,13.2984,4.59949,2453.785,38.4902
2023-10-28T07:51:49,2420,42.8014,5.9826,13.2980,4.59951,2453.785,38.4908
2023-10-28T07:54:49,2420,42.8014,5.9826,13.2979,4.59951,2453.762,38.4909
2023-10-28T07:57:49,2420,42.8014,5.9826,13.2983,4.59952,2453.800,38.4906
2023-10-28T08:00:49,2420,42.8014,5.9826,13.2982,4.59951,2453.785,38.4907
2023-10-28T08:03:49,2420,42.8014,5.9826,13.2982,4.59951,2453.762,38.4906
2023-10-28T08:06:49,2420,42.8014,5.9826,13.2983,4.59950,2453.785,38.4904
2023-10-28T08:09:49,2420,42.8014,5.9826,13.2979,4.59947,2453.807,38.4905
2023-10-28T08:12:49,2420,42.8014,5.9826,13.2980,4.59951,2453.762,38.4908
2023-10-28T08:15:49,2420,42.8014,5.9826,13.2983,4.59950,2453.785,38.4904
2023-10-28T08:18:49,2420,42.8014,5.9826,13.2988,4.59956,2453.770,38.4904
2023-10-28T08:21:49,2420,42.8014,5.9826,13.2982,4.59951,2453.785,38.4906
2023-10-28T08:24:49,2420,42.8014,5.9826,13.2982,4.59949,2453.785,38.4905
2023-10-28T08:27:49,2420,42.8014,5.9826,13.2980,4.59948,2453.762,38.4905
2023-10-28T08:30:49,2420,42.8014,5.9826,13.2981,4.59954,2453.740,38.4910
2023-10-28T08:33:49,2420,42.8014,5.9826,13.2982,4.59951,2453.762,38.4906
2023-10-28T08:36:49,2420,42.8014,5.9826,13.2982,4.59951,2453.777,38.4906
2023-10-28T08:39:49,2420,42.8014,5.9826,13.2991,4.59948,2453.740,38.4895
2023-10-28T08:42:49,2420,42.8014,5.9826,13.2979,4.59949,2453.740,38.4907
2023-10-28T08:45:49,2420,42.8014,5.9826,13.2983,4.59952,2453.762,38.4906
2023-10-28T08:48:49,2420,42.8014,5.9826,13.2985,4.59951,2453.740,38.4904
2023-10-28T08:51:49,2420,42.8014,5.9826,13.2985,4.59951,2453.740,38.4904
2023-10-28T08:54:49,2420,42.8014,5.9826,13.2983,4.59951,2453.762,38.4905
2023-10-28T08:57:49,2420,42.8014,5.9826,13.2978,4.59951,2453.740,38.4910
2023-10-28T09:00:49,2420,42.8014,5.9826,13.2982,4.59952,2453.740,38.4907
2023-10-28T09:03:49,2420,42.8014,5.9826,13.2984,4.59952,2453.717,38.4905
2023-10-28T09:06:49,2420,42.8014,5.9826,13.2984,4.59951,2453.740,38.4904
2023-10-28T09:09:49,2420,42.8014,5.9826,13.2985,4.59948,2453.762,38.4900
2023-10-28T09:12:49,2420,42.8014,5.9826,13.2985,4.59948,2453.717,38.4901
2023-10-28T09:15:49,2420,42.8014,5.9826,13.2982,4.59948,2453.762,38.4904
2023-10-28T09:18:49,2420,42.8014,5.9826,13.2982,4.59948,2453.762,38.4904
2023-10-28T09:21:49,2420,42.8014,5.9826,13.2986,4.59951,2453.740,38.4902
2023-10-28T09:24:49,2420,42.8014,5.9826,13.2984,4.59951,2453.717,38.4904
2023-10-28T09:27:49,2420,42.8014,5.9826,13.2983,4.59954,2453.740,38.4907
2023-10-28T09:30:49,2420,42.8014,5.9826,13.2979,4.59948,2453.702,38.4906
2023-10-28T09:33:49,2420,42.8014,5.9826,13.2981,4.59953,2453.717,38.4909
2023-10-28T09:36:49,2420,42.8014,5.9826,13.2981,4.59953,2453.754,38.4909
2023-10-28T09:39:49,2420,42.8014,5.9826,13.2985,4.59953,2453.740,38.4905
2023-10-28T09:42:49,2420,42.8014,5.9826,13.2980,4.59953,2453.725,38.4910
2023-10-28T09:45:49,2420,42.8014,5.9826,13.2981,4.59949,2453.717,38.4905
2023-10-28T09:48:49,2420,42.8014,5.9826,13.2983,4.59950,2453.695,38.4904
2023-10-28T09:51:49,2420,42.8014,5.9826,13.2982,4.59952,2453.732,38.4907
2023-10-28T09:54:49,2420,42.8014,5.9826,13.2982,4.59949,2453.695,38.4905
2023-10-28T09:57:49,2420,42.8014,5.9826,13.2986,4.59950,2453.695,38.4901
2023-10-28T10:00:49,2420,42.8014,5.9826,13.2982,4.59953,2453.740,38.4908
2023-10-28T10:03:49,2420,42.8014,5.9826,13.2979,4.59948,2453.717,38.4905
2023-10-28T10:06:49,2420,42.8014,5.9826,13.2984,4.59948,2453.717,38.4901
2023-10-28T10:09:49,2420,42.8014,5.9826,13.2982,4.59948,2453.695,38.4904
2023-10-28T10:12:49,2420,42.8014,5.9826,13.2981,4.59949,2453.702,38.4905
2023-10-28T10:15:49,2420,42.8014,5.9826,13.2982,4.59952,2453.680,38.4908
2023-10-28T10:18:50,2420,42.8014,5.9826,13.2982,4.59951,2453.740,38.4907
2023-10-28T10:21:49,2420,42.8014,5.9826,13.2981,4.59951,2453.695,38.4907
2023-10-28T10:24:49,2420,42.8014,5.9826,13.2980,4.59946,2453.695,38.4904
2023-10-28T10:27:49,2420,42.8014,5.9826,13.2983,4.59953,2453.709,38.4907
2023-10-28T10:30:49,2420,42.8014,5.9826,13.2980,4.59954,2453.695,38.4911
2023-10-28T10:33:49,2420,42.8014,5.9826,13.2979,4.59951,2453.672,38.4909
2023-10-28T10:36:49,2420,42.8014,5.9826,13.2978,4.59948,2453.672,38.4908
2023-10-28T10:39:49,2420,42.8014,5.9826,13.2982,4.59946,2453.695,38.4902
2023-10-28T10:42:49,2420,42.8014,5.9826,13.2979,4.59950,2453.657,38.4908
2023-10-28T10:45:49,2420,42.8014,5.9826,13.2980,4.59946,2453.672,38.4903
2023-10-28T10:48:49,2420,42.8014,5.9826,13.2983,4.59948,2453.672,38.4903
2023-10-28T10:51:49,2420,42.8014,5.9826,13.2983,4.59948,2453.672,38.4903
2023-10-28T10:54:49,2420,42.8014,5.9826,13.2980,4.59947,2453.672,38.4904
2023-10-28T10:57:50,2420,42.8014,5.9826,13.2979,4.59953,2453.687,38.4910
2023-10-28T11:00:49,2420,42.8014,5.9826,13.2979,4.59948,2453.672,38.4906
2023-10-28T11:03:49,2420,42.8014,5.9826,13.2981,4.59948,2453.672,38.4905
2023-10-28T11:06:49,2420,42.8014,5.9826,13.2982,4.59946,2453.687,38.4902
2023-10-28T11:09:49,2420,42.8014,5.9826,13.2982,4.59951,2453.695,38.4907
2023-10-28T11:12:49,2420,42.8014,5.9826,13.2981,4.59951,2453.672,38.4907
2023-10-28T11:15:49,2420,42.8014,5.9826,13.2982,4.59948,2453.627,38.4904
2023-10-28T11:18:50,2420,42.8014,5.9826,13.2981,4.59947,2453.672,38.4903
2023-10-28T11:21:49,2420,42.8014,5.9826,13.2985,4.59949,2453.635,38.4902
2023-10-28T11:24:49,2420,42.8014,5.9826,13.2977,4.59954,2453.649,38.4914
2023-10-28T11:27:49,2420,42.8014,5.9826,13.2982,4.59948,2453.672,38.4903
2023-10-28T11:30:49,2420,42.8014,5.9826,13.2979,4.59951,2453.649,38.4909
2023-10-28T11:33:49,2420,42.8014,5.9826,13.2985,4.59948,2453.649,38.4900
2023-10-28T11:36:49,2420,42.8014,5.9826,13.2983,4.59951,2453.649,38.4905
2023-10-28T11:39:49,2420,42.8014,5.9826,13.2981,4.59944,2453.635,38.4901
2023-10-28T11:42:49,2420,42.8014,5.9826,13.2982,4.59946,2453.664,38.4902
2023-10-28T11:45:49,2420,42.8014,5.9826,13.2984,4.59948,2453.649,38.4901
2023-10-28T11:48:49,2420,42.8014,5.9826,13.2982,4.59948,2453.627,38.4903
2023-10-28T11:51:49,2420,42.8014,5.9826,13.2982,4.59948,2453.641,38.4904
2023-10-28T11:54:49,2420,42.8014,5.9826,13.2979,4.59946,2453.627,38.4904
2023-10-28T11:57:49,2420,42.8014,5.9826,13.2982,4.59950,2453.627,38.4906
2023-10-28T12:00:49,2420,42.8014,5.9826,13.2979,4.59947,2453.627,38.4906
2023-10-28T12:03:49,2420,42.8014,5.9826,13.2979,4.59947,2453.627,38.4905
2023-10-28T12:06:49,2420,42.8014,5.9826,13.2979,4.59943,2453.612,38.4902
2023-10-28T12:09:49,2420,42.8014,5.9826,13.2986,4.59949,2453.627,38.4900
2023-10-28T12:12:49,2420,42.8014,5.9826,13.2979,4.59945,2453.619,38.4903
2023-10-28T12:15:49,2420,42.8014,5.9826,13.2985,4.59942,2453.627,38.4896
2023-10-28T12:18:49,2420,42.8014,5.9826,13.2984,4.59949,2453.627,38.4903
2023-10-28T12:21:49,2420,42.8014,5.9826,13.2982,4.59947,2453.604,38.4903
2023-10-28T12:24:49,2420,42.8014,5.9826,13.2983,4.59946,2453.567,38.4901
2023-10-28T12:27:49,2420,42.8014,5.9826,13.2979,4.59945,2453.627,38.4903
2023-10-28T12:30:49,2420,42.8014,5.9826,13.2978,4.59948,2453.582,38.4907
2023-10-28T12:33:49,2420,42.8014,5.9826,13.2978,4.59948,2453.582,38.4907
2023-10-28T12:36:49,2420,42.8014,5.9826,13.2980,4.59943,2453.582,38.4901
2023-10-28T12:39:49,2420,42.8014,5.9826,13.2981,4.59951,2453.604,38.4907
2023-10-28T12:42:49,2420,42.8014,5.9826,13.2982,4.59949,2453.627,38.4905
2023-10-28T12:45:49,2420,42.8014,5.9826,13.2983,4.59948,2453.582,38.4903
2023-10-28T12:48:49,2420,42.8014,5.9826,13.2979,4.59946,2453.604,38.4904
2023-10-28T12:51:49,2420,42.8014,5.9826,13.2981,4.59948,2453.582,38.4904
2023-10-28T12:54:49,2420,42.8014,5.9826,13.2986,4.59943,2453.567,38.4896
2023-10-28T12:57:49,2420,42.8014,5.9826,13.2982,4.59948,2453.604,38.4903
2023-10-28T13:00:49,2420,42.8014,5.9826,13.2984,4.59946,2453.604,38.4899
2023-10-28T13:03:49,2420,42.8014,5.9826,13.2980,4.59943,2453.559,38.4901
2023-10-28T13:06:49,2420,42.8014,5.9826,13.2980,4.59942,2453.582,38.4900
2023-10-28T13:09:49,2420,42.8014,5.9826,13.2978,4.59948,2453.582,38.4908
2023-10-28T13:12:49,2420,42.8014,5.9826,13.2982,4.59955,2453.582,38.4911
2023-10-28T13:15:49,2420,42.8014,5.9826,13.2979,4.59951,2453.604,38.4909
2023-10-28T13:18:49,2420,42.8014,5.9826,13.2979,4.59945,2453.582,38.4903
2023-10-28T13:21:50,2420,42.8014,5.9826,13.2982,4.59948,2453.604,38.4904
2023-10-28T13:24:49,2420,42.8014,5.9826,13.2977,4.59946,2453.604,38.4907
2023-10-28T13:27:49,2420,42.8014,5.9826,13.2982,4.59946,2453.627,38.4901
2023-10-28T13:30:49,2420,42.8014,5.9826,13.2981,4.59942,2453.559,38.4900
2023-10-28T13:33:50,2420,42.8014,5.9826,13.2986,4.59945,2453.582,38.4897
2023-10-28T13:36:49,2420,42.8014,5.9826,13.2979,4.59946,2453.590,38.4905
2023-10-28T13:39:49,2420,42.8014,5.9826,13.2985,4.59942,2453.596,38.4896
2023-10-28T13:42:49,2420,42.8014,5.9826,13.2985,4.59947,2453.582,38.4900
2023-10-28T13:45:49,2420,42.8014,5.9826,13.2982,4.59943,2453.567,38.4900
2023-10-28T13:48:49,2420,42.8014,5.9826,13.2979,4.59942,2453.567,38.4902
2023-10-28T13:51:49,2420,42.8014,5.9826,13.2980,4.59945,2453.604,38.4903
2023-10-28T13:54:49,2420,42.8014,5.9826,13.2985,4.59946,2453.604,38.4899
2023-10-28T13:57:49,2420,42.8014,5.9826,13.2982,4.59943,2453.627,38.4899
2023-10-28T14:00:49,2420,42.8014,5.9826,13.2985,4.59946,2453.627,38.4899
2023-10-28T14:03:49,2420,42.8014,5.9826,13.2978,4.59951,2453.604,38.4910
2023-10-28T14:06:49,2420,42.8014,5.9826,13.2983,4.59948,2453.590,38.4902
2023-10-28T14:09:49,2420,42.8014,5.9826,13.2982,4.59945,2453.582,38.4901
2023-10-28T14:12:49,2420,42.8014,5.9826,13.2980,4.59944,2453.627,38.4902
2023-10-28T14:15:49,2420,42.8014,5.9826,13.2981,4.59946,2453.627,38.4902
2023-10-28T14:18:49,2420,42.8014,5.9826,13.2982,4.59946,2453.627,38.4902
2023-10-28T14:21:49,2420,42.8014,5.9826,13.2983,4.59945,2453.604,38.4900
2023-10-28T14:24:49,2420,42.8014,5.9826,13.2984,4.59943,2453.612,38.4897
2023-10-28T14:27:49,2420,42.8014,5.9826,13.2982,4.59947,2453.649,38.4903
2023-10-28T14:30:49,2420,42.8014,5.9826,13.2986,4.59952,2453.649,38.4904
2023-10-28T14:33:49,2420,42.8014,5.9826,13.2982,4.59942,2453.604,38.4899
2023-10-28T14:36:49,2420,42.8014,5.9826,13.2984,4.59945,2453.649,38.4899
2023-10-28T14:39:49,2420,42.8014,5.9826,13.2983,4.59946,2453.627,38.4901
2023-10-28T14:42:49,2420,42.8014,5.9826,13.2985,4.59947,2453.627,38.4900
2023-10-28T14:45:49,2420,42.8014,5.9826,13.2980,4.59951,2453.649,38.4908
2023-10-28T14:48:49,2420,42.8014,5.9826,13.2981,4.59946,2453.604,38.4902
2023-10-28T14:51:49,2420,42.8014,5.9826,13.2980,4.59945,2453.649,38.4903
2023-10-28T14:54:49,2420,42.8014,5.9826,13.2984,4.59951,2453.672,38.4904
2023-10-28T14:57:49,2420,42.8014,5.9826,13.2983,4.59943,2453.627,38.4898
2023-10-28T15:00:49,2420,42.8014,5.9826,13.2985,4.59946,2453.627,38.4899
2023-10-28T15:03:49,2420,42.8014,5.9826,13.2982,4.59947,2453.649,38.4903
2023-10-28T15:06:49,2420,42.8014,5.9826,13.2982,4.59946,2453.649,38.4902
2023-10-28T15:09:49,2420,42.8014,5.9826,13.2984,4.59946,2453.649,38.4899
2023-10-28T15:12:49,2420,42.8014,5.9826,13.2985,4.59946,2453.649,38.4898
2023-10-28T15:15:49,2420,42.8014,5.9826,13.2982,4.59946,2453.672,38.4902
2023-10-28T15:18:49,2420,42.8014,5.9826,13.2982,4.59946,2453.649,38.4901
2023-10-28T15:21:49,2420,42.8014,5.9826,13.2982,4.59945,2453.649,38.4901
2023-10-28T15:24:49,2420,42.8014,5.9826,13.2983,4.59943,2453.649,38.4897
2023-10-28T15:27:49,2420,42.8014,5.9826,13.2978,4.59945,2453.672,38.4904
2023-10-28T15:30:50,2420,42.8014,5.9826,13.2979,4.59944,2453.672,38.4903
2023-10-28T15:33:49,2420,42.8014,5.9826,13.2984,4.59946,2453.672,38.4900
2023-10-28T15:36:49,2420,42.8014,5.9826,13.2985,4.59944,2453.672,38.4897
2023-10-28T15:39:49,2420,42.8014,5.9826,13.2982,4.59943,2453.695,38.4899
2023-10-28T15:42:49,2420,42.8014,5.9826,13.2982,4.59944,2453.672,38.4900
2023-10-28T15:45:49,2420,42.8014,5.9826,13.2982,4.59943,2453.695,38.4899
2023-10-28T15:48:49,2420,42.8014,5.9826,13.2979,4.59945,2453.695,38.4903
2023-10-28T15:51:49,2420,42.8014,5.9826,13.2984,4.59946,2453.717,38.4900
2023-10-28T15:54:49,2420,42.8014,5.9826,13.2985,4.59951,2453.672,38.4904
2023-10-28T15:57:49,2420,42.8014,5.9826,13.2981,4.59946,2453.695,38.4902
2023-10-28T16:00:49,2420,42.8014,5.9826,13.2983,4.59949,2453.695,38.4903
2023-10-28T16:03:49,2420,42.8014,5.9826,13.2980,4.59947,2453.717,38.4904